Simultaneous Nadir Overpasses (SNOs) Predictions

Prediction of SNOs between GOES-16 and NOAA-20 Satellite Orbit:

Table of predicted SNOs for the next 14.0 days since TLE Epoch: 12/12/2020
Index Date Time (GOES-16) GOES-16 Lat,Lon NOAA-20 Lat,Lon Distance(km) Time Diff (sec)
1 12/14/2020 06:23:17 0.00, -75.13 -0.01, -75.00 15.15 80
2 12/16/2020 18:26:30 0.01, -75.14 -0.13, -75.78 72.95 80
3 12/17/2020 18:10:26 0.01, -75.14 0.88, -71.25 443.56 80
4 12/19/2020 06:32:14 -0.01, -75.14 0.29, -76.52 157.13 80
5 12/20/2020 06:10:49 -0.02, -75.15 -0.72, -71.99 359.83 80
6 12/21/2020 18:32:47 0.02, -75.17 -0.43, -77.30 242.60 80
7 12/22/2020 18:16:42 0.02, -75.18 0.58, -72.77 275.08 80
8 12/24/2020 06:38:30 -0.02, -75.19 0.59, -78.04 323.85 80
9 12/25/2020 06:17:06 -0.02, -75.21 -0.42, -73.51 193.90 80
